Location: Bay Ridge
(40.6340°N, 74.0146°W)
Time: 12:30:50
(UTC+00:00)

Cosmos 2061 Rocket - Pass Details

Date: 15 November 2019
Orbit: 965 x 1013 km, 82.9° (Epoch: 06 December)

Event Time Altitude Azimuth Distance (km) Brightness Sun altitude
Rises 11:09:26 0° 207° (SSW) 3,682 6.9 -6.7°
Reaches altitude 10° 11:12:07 10° 215° (SW) 2,731 6.2 -6.2°
Maximum altitude 11:17:56 40° 284° (WNW) 1,406 4.4 -5.1°
Drops below altitude 10° 11:23:45 10° 353° (N) 2,721 6.1 -4.1°
Sets 11:26:27 0° 1° (N) 3,668 6.8 -3.6°
